Regional Weather Roundup
Issued by NWS

Home | Current Version | Previous Version | Graphics & Text | Print | Product List | Glossary On
Versions: 1 2 3 4 5 6 7 8 9 10 11 12 13 14 15 16 17 18 19 20 21 22 23 24 25 26 27 28 29 30 31 32 33 34 35 36 37 38 39 40 41 42 43 44 45 46 47 48 49 50
000
ASUS43 KDTX 111901
RWRMI
MICHIGAN HOURLY REGIONAL WEATHER ROUNDUP
NATIONAL WEATHER SERVICE DETROIT/PONTIAC MI
200 PM EST THU FEB 11 2016

NOTE: "FAIR" INDICATES FEW OR NO CLOUDS BELOW 12,000 FEET WITH NO
SIGNIFICANT WEATHER AND/OR OBSTRUCTION TO VISIBILITY.

MIZ047>049-052>055-059>063-066>070-074>076-081>083-112000-
SOUTHEAST LOWER MICHIGAN

CITY           SKY/WX    TMP DP  RH WIND       PRES   REMARKS
ADRIAN         CLOUDY    20   3  48 NW13      30.22S WCI   7
ALMA           CLOUDY    21   5  51 NW7       30.20F WCI  12
ANN ARBOR      PTSUNNY   18   4  54 W8        30.20S WCI   8
BAD AXE        CLOUDY    13   4  66 W8        30.18S WCI   2
CARO           MOSUNNY   16   3  57 NW9       30.19F WCI   4
DETROIT CITY   PTSUNNY   19   1  45 NW12      30.20F WCI   7
DETROIT        CLOUDY    19   5  54 NW10G17   30.22S WCI   7
FLINT          CLOUDY    19   3  49 NW13G18   30.21S WCI   6
GROSSE ILE     PTSUNNY   21   5  49 NW13      30.20F WCI   9
HILLSDALE      LGT SNOW  18   9  68 W8        30.19S WCI   7
HOWELL         PTSUNNY   18   4  53 NW8       30.19S WCI   8

CITY           SKY/WX    TMP DP  RH WIND       PRES   REMARKS
JACKSON        CLOUDY    19   3  49 NW12      30.19S WCI   7
LAMBERTVILLE   CLOUDY    22   4  45 NW8       30.23S WCI  12
LANSING        CLOUDY    20   4  50 NW8       30.21S WCI  10
LAPEER         PTSUNNY   14   2  59 NW9G17    30.19S WCI   2
MASON          CLOUDY    19   5  54 NW10      30.20S WCI   8
MONROE         CLOUDY    20   6  55 NW8       30.21S WCI  10
MT. CLEMENS    PTSUNNY   16   2  55 NW14      30.18S WCI   2
PONTIAC        PTSUNNY   16   3  56 NW15      30.17S WCI   1
PORT HOPE        N/A     13   3  64 NW10      30.17S WCI   0
PORT HURON     SUNNY     14   1  57 NW12G18   30.20S WCI   0
TRI CITIES     PTSUNNY   18   3  52 NW10      30.20F WCI   6
MIDLAND        CLOUDY    18   3  51 NW12      30.20R WCI   6
TROY           CLOUDY    20   4  49 NW10G18   30.22S WCI   8
SAGINAW HB     PTSUNNY   19   7  58 NW8       30.21R WCI   9
$$
MIZ043>046-050>051-056>058-064>065-071>073-077>080-112000-
SOUTHWEST LOWER MICHIGAN

CITY           SKY/WX    TMP DP  RH WIND       PRES   REMARKS
BATTLE CREEK   CLOUDY    20   7  57 W14       30.21F WCI   7
BENTON HARBOR  PTSUNNY   21   6  52 W13       30.27S WCI   9
BIG RAPIDS     CLOUDY    19   3  49 W10       30.18R WCI   8
COLDWATER      CLOUDY    20  10  64 W9        30.22S WCI   9
FREMONT        FLURRIES  20   6  53 NW10      30.21F WCI   9
HOLLAND        CLOUDY    21   9  59 NW8       30.25R WCI  11
GRAND RAPIDS   PTSUNNY   23   5  46 W14       30.22S WCI  11
IONIA          CLOUDY    20   4  48 NW10      30.20S WCI   9
KALAMAZOO      FLURRIES  20   7  57 NW7       30.23S WCI  11
LUDINGTON      CLOUDY    18   8  64 NW12      30.24S WCI   6
MARSHALL       CLOUDY    22   2  41 W10       30.20F WCI  11
MOUNT PLEASANT PTSUNNY   22   5  48 W9        30.18S WCI  11
MUSKEGON       CLOUDY    22   7  52 W9        30.25S WCI  12
SOUTH HAVEN    CLOUDY    21  10  63 W7        30.25S WCI  13
$$
MIZ016>042-112000-
NORTHERN LOWER MICHIGAN

CITY           SKY/WX    TMP DP  RH WIND       PRES   REMARKS
ALPENA         MOSUNNY   13  -1  54 NW8       30.16S WCI   2
BEAVER ISLAND  CLOUDY    17   8  65 W10       30.15F WCI   5
BELLAIRE       LGT SNOW  16  12  82 CALM      30.18S VSB 1
CADILLAC       CLOUDY    18   4  55 W10       30.12F WCI   6
CHARLEVOIX     LGT SNOW  17  10  73 W7        30.19F WCI   8
FRANKFORT      CLOUDY    19   8  62 W6        30.21S WCI  11
GRAYLING       CLOUDY    15   4  61 CALM      30.13F
HARBOR SPRINGS MOSUNNY   17   5  61 W8        30.15F WCI   6
HOUGHTON LAKE  CLOUDY    15   4  61 W9        30.14F WCI   3
MANISTEE       CLOUDY    18   3  53 W14       30.22S WCI   4
OSCODA         MOSUNNY   14  -1  52 N10       30.17S WCI   1
PELLSTON       MOSUNNY   16   3  56 W7        30.15F WCI   6
ROGERS CITY    SUNNY     13  -1  52 NW5       30.15F WCI   6
TRAVERSE CITY  FLURRIES  18   8  65 W13       30.18S WCI   5
$$
MIZ007>008-015-112000-
EASTERN UPPER MICHIGAN

CITY           SKY/WX    TMP DP  RH WIND       PRES   REMARKS
KINROSS        MOSUNNY   12   3  67 SW7       30.10F WCI   2
MACKINAC ISLAN PTSUNNY   11   4  71 W9G16     30.13F WCI  -1
NEWBERRY       CLOUDY    17   9  71 W14       30.08F WCI   2
S. S. MARIE    PTSUNNY   10  -2  58 SW7       30.10F WCI  -1
$$
MIZ004>006-011>014-085-112000-
CENTRAL UPPER MICHIGAN

CITY           SKY/WX    TMP DP  RH WIND       PRES   REMARKS
MANISTIQUE     PTSUNNY   17   3  54 W14G23    30.15S WCI   3
ESCANABA       SUNNY     18   0  45 W13       30.18F WCI   4
MENOMINEE      SUNNY     16   0  48 W6        30.21F WCI   7
SAWYER-GWINN   CLOUDY    12   1  62 NW17G23   30.11F WCI  -5
$$
MIZ001>003-009>011-084-112000-
WESTERN UPPER MICHIGAN

CITY           SKY/WX    TMP DP  RH WIND       PRES   REMARKS
IRON MOUNTAIN  PTSUNNY   16   1  51 NW12      30.14F WCI   3
HOUGHTON       CLOUDY    12   3  67 W13       30.12F WCI  -3
COPPER HARBOR    N/A     15   5  64 N21G30    30.13F WCI  -2
IRONWOOD       SUNNY     10   0  61 W15       30.16F WCI  -6
$$

ABBREVIATIONS USED IN REMARKS
   TC - TEMPERATURE IN CELSIUS
  WCI - WIND CHILL INDEX
   HX - HEAT INDEX
  VSB - VISIBILITY




USA.gov is the U.S. government's official web portal to all federal, state and local government web resources and services.